Location: Lac Echo
(45.9375°N, 75.4580°W)
Time: 18:10:36
(UTC-05:00)

Amateur Radio Satellites - All Passes

Search period start: 20 November 2017 17:40
Search period end: 21 November 2017 17:40
Location: Lac Echo, 45.9375°N, 75.4580°W

Satellite Date Start Highest point End Downlink Frequencies (MHz)
Time Altitude Azimuth
UWE-3 20 Nov 17:42:46 17:45:35 17° 63° (ENE) 17:48:22 435.000/436.395/437.385
XW-2C 20 Nov 17:43:35 17:47:07 41° 262° (W) 17:50:42 145.795 - 145.815
LilacSat-2 20 Nov 17:44:42 17:48:12 37° 262° (W) 17:51:44 437.200
XW-2F 20 Nov 17:55:12 17:58:34 32° 263° (W) 18:01:58 145.980 - 146.000
SEEDS 20 Nov 18:02:37 18:06:31 42° 71° (ENE) 18:10:30 437.485
AAUSAT CUBESAT 2 20 Nov 18:12:14 18:15:36 25° 67° (ENE) 18:19:00 437.432
CUBEBUG 2 20 Nov 18:18:45 18:23:17 63° 74° (ENE) 18:27:42 437.445
KAITUO 1B 20 Nov 18:25:10 18:27:52 19° 267° (W) 18:30:36 145.475/437.950
AO-73 20 Nov 18:25:44 18:28:57 21° 65° (ENE) 18:32:08 145.935
RS-15 20 Nov 18:34:45 18:46:43 61° 115° (ESE) 18:58:38 29.354- 29.394
KKS-1 20 Nov 18:35:28 18:38:58 23° 296° (WNW) 18:42:28 437.445
CUTE-I 20 Nov 18:37:49 18:42:05 24° 267° (W) 18:46:23 437.470
XW-2D 20 Nov 18:40:59 18:41:17 10° 272° (W) 18:41:35 145.860 - 145.880
Oscar 11 20 Nov 18:42:50 18:46:08 22° 65° (ENE) 18:49:27 .
HO-68 20 Nov 18:47:34 18:54:34 53° 259° (W) 19:01:37 435.675
STARS 20 Nov 19:01:27 19:05:12 28° 294° (WNW) 19:08:55 437.465
STRAND 1 20 Nov 19:01:44 19:06:27 36° 97° (E) 19:11:08 437.568
NO-84 20 Nov 19:06:09 19:09:30 23° 3° (N) 19:12:56 435.350 FM
CUTE 1.7 + AOD 2 20 Nov 19:07:02 19:10:30 25° 266° (W) 19:14:01 437.475
ZACube-1 20 Nov 19:09:07 19:13:24 64° 74° (ENE) 19:17:37 437.345
XW-2A 20 Nov 19:09:12 19:12:29 61° 260° (W) 19:15:47 145.665 - 145.685
UWE-3 20 Nov 19:17:16 19:21:39 57° 260° (W) 19:25:56 435.000/436.395/437.385
YUBILEINY 20 Nov 19:19:48 19:23:22 13° 289° (WNW) 19:26:56 435.215
FO-29 20 Nov 19:35:37 19:42:16 29° 90° (E) 19:48:36 435.910
SEEDS 20 Nov 19:39:27 19:42:25 19° 268° (W) 19:45:23 437.485
AAUSAT CUBESAT 2 20 Nov 19:47:14 19:50:55 32° 264° (W) 19:54:40 437.432
CUBEBUG 2 20 Nov 19:57:39 20:00:16 15° 270° (W) 20:02:50 437.445
AO-73 20 Nov 20:00:53 20:04:57 40° 262° (W) 20:08:57 145.935
Max Valier Satellite 20 Nov 20:03:42 20:06:27 20° 67° (ENE) 20:09:12 145.860
EO-88 20 Nov 20:04:12 20:06:20 15° 64° (ENE) 20:08:29 145.990 - 145.960
Oscar 11 20 Nov 20:18:00 20:22:02 39° 262° (W) 20:26:06 .
DELFI C3 20 Nov 20:23:14 20:27:04 50° 73° (ENE) 20:30:57 145.870
ISS 20 Nov 20:36:23 20:38:47 19° 137° (SE) 20:41:11 437.550
STRAND 1 20 Nov 20:41:02 20:45:33 32° 295° (WNW) 20:50:02 437.568
NO-84 20 Nov 20:43:43 20:47:42 40° 24° (NNE) 20:51:45 435.350 FM
UNISAT 6 20 Nov 20:47:07 20:49:26 14° 90° (E) 20:51:46 437.425
RS-15 20 Nov 20:47:37 20:59:38 54° 321° (NW) 21:11:31 29.354- 29.394
ZACube-1 20 Nov 20:48:03 20:50:05 13° 271° (W) 20:52:07 437.345
TIGRISAT 20 Nov 20:51:36 20:53:58 14° 90° (E) 20:56:20 435.000
FO-29 20 Nov 21:19:58 21:27:48 69° 290° (WNW) 21:35:15 435.910
ESTCUBE 1 20 Nov 21:25:48 21:28:51 18° 62° (ENE) 21:31:55 437.505/2401.250
nSIGHT-1 20 Nov 21:29:27 21:32:38 64° 148° (SSE) 21:35:50 .
EO-88 20 Nov 21:36:12 21:39:39 42° 262° (W) 21:43:08 145.990 - 145.960
Max Valier Satellite 20 Nov 21:36:51 21:40:06 30° 264° (W) 21:43:22 145.860
PRISM 20 Nov 21:56:00 21:59:31 26° 95° (E) 22:03:01 437.425
DELFI C3 20 Nov 21:59:54 22:02:07 14° 270° (W) 22:04:21 145.870
LO-87 20 Nov 22:02:11 22:05:39 46° 73° (ENE) 22:09:08 145.935 - 145.965
SO-50 20 Nov 22:10:34 22:15:02 80° 123° (ESE) 22:19:34 436.795
ISS 20 Nov 22:11:40 22:14:57 74° 335° (NNW) 22:18:13 437.550
NO-84 20 Nov 22:21:04 22:25:13 52° 222° (SW) 22:29:20 435.350 FM
UNISAT 6 20 Nov 22:22:20 22:26:34 58° 287° (WNW) 22:30:43 437.425
TIGRISAT 20 Nov 22:26:50 22:31:03 56° 287° (WNW) 22:35:12 435.000
O/OREOS (USA 219) 20 Nov 22:27:36 22:31:55 39° 58° (ENE) 22:36:11 437.305
AIST 2D 20 Nov 22:34:15 22:36:58 20° 94° (E) 22:39:40 435.315
SPROUT 20 Nov 22:48:57 22:52:41 30° 67° (ENE) 22:56:26 437.525
QB50P2 20 Nov 22:55:43 22:58:13 15° 91° (E) 23:00:42 145.880/145.840
ESTCUBE 1 20 Nov 23:00:52 23:05:15 54° 260° (W) 23:09:40 437.505/2401.250
RS-15 20 Nov 23:05:05 23:15:40 32° 353° (N) 23:25:56 29.354- 29.394
nSIGHT-1 20 Nov 23:06:03 23:09:02 35° 347° (NNW) 23:12:02 .
FO-29 20 Nov 23:06:33 23:11:25 18° 310° (NW) 23:16:13 435.910
VELOX 1 20 Nov 23:23:25 23:27:39 45° 70° (ENE) 23:31:55 145.980
PRISM 20 Nov 23:31:06 23:34:47 31° 293° (WNW) 23:38:27 437.425
LO-87 20 Nov 23:37:36 23:39:19 13° 270° (W) 23:41:01 145.935 - 145.965
DUCHIFAT 1 20 Nov 23:45:05 23:48:56 34° 97° (E) 23:52:43 145.980
ISS 20 Nov 23:48:50 23:51:46 30° 354° (N) 23:54:44 437.550
EO-79 20 Nov 23:51:41 23:55:48 53° 100° (E) 23:59:53 145.935-145.965
SO-50 20 Nov 23:52:43 23:56:02 20° 325° (NW) 23:59:24 436.795
NANOSAT C BR1 20 Nov 23:55:14 23:59:20 51° 100° (E) 00:03:24 145.865
50 SAT 20 Nov 23:58:33 00:01:05 21° 68° (ENE) 00:03:38 437.505
POLYITAN 1 21 Nov 00:06:49 00:11:02 78° 103° (ESE) 00:15:13 437.675
AIST 2D 21 Nov 00:07:06 00:10:08 27° 291° (WNW) 00:13:09 435.315
O/OREOS (USA 219) 21 Nov 00:07:26 00:11:06 24° 257° (WSW) 00:14:44 437.305
DX 1 21 Nov 00:10:35 00:14:32 34° 68° (ENE) 00:18:31 434.975-435.025
Oscar 19 21 Nov 00:12:14 00:13:54 11° 87° (E) 00:15:35 437.125/150
PCSat 21 Nov 00:15:05 00:20:23 57° 116° (ESE) 00:25:42 145.827
SPROUT 21 Nov 00:24:50 00:28:33 28° 265° (W) 00:32:16 437.525
QB50P2 21 Nov 00:30:13 00:34:19 53° 288° (WNW) 00:38:24 145.880/145.840
Gurwin Techsat 1B 21 Nov 00:33:20 00:35:57 14° 88° (E) 00:38:35 435.225
BUGSAT 1 21 Nov 00:39:26 00:43:06 33° 97° (E) 00:46:44 437.445
nSIGHT-1 21 Nov 00:42:55 00:45:49 29° 7° (N) 00:48:41 .
UKube-1 21 Nov 00:53:10 00:57:25 60° 72° (ENE) 01:01:42 .
VELOX 1 21 Nov 01:01:03 01:04:18 20° 268° (W) 01:07:35 145.980
DUCHIFAT 1 21 Nov 01:21:05 01:24:25 23° 295° (WNW) 01:27:44 145.980
RS-15 21 Nov 01:21:12 01:32:25 40° 27° (NNE) 01:43:06 29.354- 29.394
ISS 21 Nov 01:25:43 01:28:47 36° 14° (NNE) 01:31:51 437.550
EO-79 21 Nov 01:28:29 01:31:09 17° 298° (WNW) 01:33:48 145.935-145.965
50 SAT 21 Nov 01:30:31 01:33:07 22° 265° (W) 01:35:43 437.505
NANOSAT C BR1 21 Nov 01:31:56 01:34:39 17° 298° (WNW) 01:37:21 145.865
BEESAT 3 21 Nov 01:35:46 01:36:31 10° 108° (ESE) 01:37:16 437.485
BEESAT 21 Nov 01:39:45 01:43:53 30° 65° (ENE) 01:48:00 436.000
POLYITAN 1 21 Nov 01:44:32 01:46:12 12° 301° (WNW) 01:47:52 437.675
DX 1 21 Nov 01:47:08 01:50:46 25° 265° (W) 01:54:26 434.975-435.025
Oscar 19 21 Nov 01:48:47 01:53:59 86° 104° (ESE) 01:59:10 437.125/150
ITUPSAT 1 21 Nov 01:48:57 01:53:17 35° 67° (ENE) 01:57:37 437.325
M-CUBED/EXP-1 PRIME 21 Nov 01:55:36 01:58:36 17° 97° (E) 02:01:37 437.505
PCSat 21 Nov 01:59:27 02:04:06 29° 317° (NW) 02:08:48 145.827
MOZHAYETS 4 21 Nov 02:04:28 02:08:57 59° 73° (ENE) 02:13:27
Gurwin Techsat 1B 21 Nov 02:11:14 02:16:36 85° 286° (WNW) 02:21:55 435.225
AO-7 21 Nov 02:13:46 02:19:46 21° 90° (E) 02:25:43 .
BUGSAT 1 21 Nov 02:15:05 02:18:18 23° 295° (WNW) 02:21:29 437.445
CUBESAT XI-V 21 Nov 02:16:22 02:19:46 21° 63° (ENE) 02:23:12 437.345
nSIGHT-1 21 Nov 02:19:09 02:22:22 77° 26° (NNE) 02:25:33 .
UKube-1 21 Nov 02:31:25 02:33:50 15° 270° (W) 02:36:14 .
BEESAT 2 21 Nov 02:44:22 02:46:58 17° 111° (ESE) 02:49:35 435.950
ISS 21 Nov 03:02:11 03:05:25 59° 213° (SSW) 03:08:37 437.550
BEESAT 3 21 Nov 03:09:24 03:13:24 85° 306° (NW) 03:17:26 437.485
BEESAT 21 Nov 03:17:12 03:21:33 35° 263° (W) 03:25:56 436.000
ITUPSAT 1 21 Nov 03:26:58 03:31:08 29° 264° (W) 03:35:18 437.325
M-CUBED/EXP-1 PRIME 21 Nov 03:28:48 03:33:15 61° 292° (WNW) 03:37:50 437.505
AO-85 21 Nov 03:29:10 03:31:50 18° 112° (ESE) 03:34:34 145.980
Oscar 19 21 Nov 03:29:41 03:32:37 15° 303° (WNW) 03:35:33 437.125/150
RS-15 21 Nov 03:34:28 03:46:30 88° 236° (SW) 03:57:48 29.354- 29.394
ITAMSAT 1 21 Nov 03:40:35 03:45:45 58° 101° (E) 03:50:51 435.822/435.867
MOZHAYETS 4 21 Nov 03:43:43 03:46:30 16° 270° (W) 03:49:17
CUBESAT XI-V 21 Nov 03:52:23 03:56:49 48° 261° (W) 04:01:18 437.345
Gurwin Techsat 1B 21 Nov 03:52:58 03:55:45 15° 304° (NW) 03:58:31 435.225
nSIGHT-1 21 Nov 03:56:04 03:58:15 17° 224° (SW) 04:00:26 .
KKS-1 21 Nov 03:58:22 04:02:43 52° 71° (ENE) 04:07:05 437.445
AO-7 21 Nov 04:05:09 04:13:34 89° 291° (WNW) 04:21:57 .
BEESAT 2 21 Nov 04:20:19 04:24:17 56° 310° (NW) 04:28:17 435.950
STARS 21 Nov 04:23:30 04:27:37 39° 69° (ENE) 04:31:46 437.465
DOVE 4 21 Nov 04:24:58 04:29:37 32° 94° (E) 04:34:03 437.250
YUBILEINY 21 Nov 04:28:05 04:35:32 33° 82° (E) 04:43:01 435.215
STRAND 1 21 Nov 04:45:23 04:46:38 11° 53° (NE) 04:47:52 437.568
BEESAT 3 21 Nov 04:49:10 04:51:33 15° 326° (NW) 04:53:57 437.485
SO-50 21 Nov 04:59:26 05:03:15 25° 39° (NE) 05:07:08 436.795
AO-85 21 Nov 05:08:00 05:11:49 48° 312° (NW) 05:15:50 145.980
CUTE-I 21 Nov 05:12:11 05:15:35 17° 89° (E) 05:18:56 437.470
XW-2C 21 Nov 05:14:09 05:16:36 16° 92° (E) 05:19:04 145.795 - 145.815
LilacSat-2 21 Nov 05:15:40 05:18:24 18° 93° (E) 05:21:08 437.200
ITAMSAT 1 21 Nov 05:20:51 05:24:48 22° 300° (WNW) 05:28:43 435.822/435.867
XW-2F 21 Nov 05:24:43 05:27:34 20° 93° (E) 05:30:24 145.980 - 146.000
KKS-1 21 Nov 05:36:32 05:39:33 18° 268° (W) 05:42:37 437.445
RS-15 21 Nov 05:48:25 05:57:12 26° 260° (W) 06:05:42 29.354- 29.394
FO-29 21 Nov 05:51:50 05:56:20 18° 50° (NE) 06:01:05 435.910
KAITUO 1B 21 Nov 05:52:29 05:55:53 32° 97° (E) 05:59:18 145.475/437.950
AO-7 21 Nov 05:58:57 06:05:20 25° 311° (NW) 06:11:44 .
STARS 21 Nov 06:00:33 06:04:05 23° 266° (W) 06:07:37 437.465
BEESAT 2 21 Nov 06:01:17 06:02:53 12° 331° (NNW) 06:04:29 435.950
DOVE 4 21 Nov 06:02:31 06:07:18 37° 293° (WNW) 06:11:52 437.250
XW-2D 21 Nov 06:06:46 06:10:34 69° 102° (ESE) 06:14:22 145.860 - 145.880
HO-68 21 Nov 06:12:47 06:18:49 28° 93° (E) 06:24:46 435.675
STRAND 1 21 Nov 06:19:44 06:24:50 66° 72° (ENE) 06:29:58 437.568
XW-2B 21 Nov 06:21:35 06:25:24 83° 287° (WNW) 06:29:13 145.730 - 145.750
YUBILEINY 21 Nov 06:23:09 06:31:47 62° 284° (WNW) 06:40:32 435.215
NUDT-PHONESAT 21 Nov 06:37:10 06:40:53 77° 286° (WNW) 06:44:36 437.300
SO-50 21 Nov 06:39:29 06:44:03 59° 239° (WSW) 06:48:40 436.795
XW-2C 21 Nov 06:47:22 06:50:58 40° 289° (WNW) 06:54:33 145.795 - 145.815
CUTE 1.7 + AOD 2 21 Nov 06:48:18 06:52:26 45° 99° (E) 06:56:32 437.475
LilacSat-2 21 Nov 06:49:15 06:52:47 36° 290° (WNW) 06:56:20 437.200
CUTE-I 21 Nov 06:50:48 06:56:11 73° 287° (WNW) 07:01:30 437.470
AO-85 21 Nov 06:51:59 06:53:17 11° 335° (NNW) 06:54:37 145.980
XW-2F 21 Nov 06:58:19 07:01:44 33° 290° (WNW) 07:05:10 145.980 - 146.000
UWE-3 21 Nov 07:04:44 07:08:00 22° 93° (E) 07:11:16 435.000/436.395/437.385
PCSat 21 Nov 07:17:50 07:21:35 18° 35° (NE) 07:25:20 145.827
SEEDS 21 Nov 07:18:57 07:23:10 60° 101° (E) 07:27:22 437.485
AAUSAT CUBESAT 2 21 Nov 07:26:16 07:30:03 32° 96° (E) 07:33:48 437.432
KAITUO 1B 21 Nov 07:26:50 07:29:41 21° 293° (WNW) 07:32:33 145.475/437.950
FO-29 21 Nov 07:33:21 07:40:01 75° 72° (ENE) 07:47:32 435.910
XW-2D 21 Nov 07:42:56 07:44:12 11° 299° (WNW) 07:45:27 145.860 - 145.880
CUBEBUG 2 21 Nov 07:43:31 07:47:43 80° 285° (WNW) 07:51:51 437.445
AO-73 21 Nov 07:46:04 07:49:42 29° 95° (E) 07:53:20 145.935
UNISAT 6 21 Nov 07:47:49 07:51:02 19° 63° (ENE) 07:54:13 437.425
TIGRISAT 21 Nov 07:52:10 07:55:24 20° 63° (ENE) 07:58:36 435.000
HO-68 21 Nov 07:59:54 08:07:01 64° 292° (WNW) 08:14:03 435.675
XW-2A 21 Nov 08:00:34 08:03:56 86° 285° (WNW) 08:07:18 145.665 - 145.685
STRAND 1 21 Nov 08:01:07 08:04:29 17° 270° (W) 08:07:52 437.568
Oscar 11 21 Nov 08:02:30 08:06:21 30° 96° (E) 08:10:10 .
CUTE 1.7 + AOD 2 21 Nov 08:24:53 08:27:57 20° 296° (WNW) 08:31:01 437.475
YUBILEINY 21 Nov 08:26:19 08:30:48 15° 309° (NW) 08:35:20 435.215
ZACube-1 21 Nov 08:30:49 08:34:58 81° 284° (WNW) 08:39:07 437.345
CUTE-I 21 Nov 08:33:06 08:35:17 13° 306° (NW) 08:37:27 437.470
UWE-3 21 Nov 08:40:47 08:44:34 34° 291° (WNW) 08:48:19 435.000/436.395/437.385
PRISM 21 Nov 08:47:22 08:50:48 26° 66° (ENE) 08:54:16 437.425
SEEDS 21 Nov 08:55:53 08:58:23 15° 298° (WNW) 09:00:52 437.485
PCSat 21 Nov 09:00:26 09:05:54 77° 57° (ENE) 09:11:19 145.827
AAUSAT CUBESAT 2 21 Nov 09:01:54 09:05:23 25° 293° (WNW) 09:08:50 437.432
EO-88 21 Nov 09:03:20 09:05:08 13° 91° (E) 09:06:55 145.990 - 145.960
Max Valier Satellite 21 Nov 09:04:13 09:06:54 19° 93° (E) 09:09:35 145.860
AIST 2D 21 Nov 09:12:05 09:13:23 12° 63° (ENE) 09:14:41 435.315
FO-29 21 Nov 09:20:42 09:25:53 23° 273° (W) 09:31:32 435.910
AO-73 21 Nov 09:22:23 09:25:52 27° 293° (WNW) 09:29:22 145.935
UNISAT 6 21 Nov 09:22:57 09:27:24 51° 260° (W) 09:31:47 437.425
TIGRISAT 21 Nov 09:27:19 09:31:45 51° 260° (W) 09:36:08 435.000
DELFI C3 21 Nov 09:31:54 09:35:53 60° 100° (E) 09:39:49 145.870
Oscar 11 21 Nov 09:38:42 09:42:24 28° 293° (WNW) 09:46:06 .
BEESAT 3 21 Nov 09:46:59 09:49:50 18° 37° (NE) 09:52:39 437.485
HO-68 21 Nov 09:49:33 09:53:24 15° 313° (NW) 09:57:13 435.675
QB50P2 21 Nov 09:50:37 09:53:22 17° 62° (ENE) 09:56:07 145.880/145.840
AO-85 21 Nov 10:17:06 10:18:30 11° 26° (NNE) 10:19:57 145.980
PRISM 21 Nov 10:22:17 10:25:58 31° 264° (W) 10:29:40 437.425
EO-88 21 Nov 10:35:30 10:39:01 46° 288° (WNW) 10:42:32 145.990 - 145.960
Max Valier Satellite 21 Nov 10:37:30 10:40:47 31° 290° (WNW) 10:44:04 145.860
DUCHIFAT 1 21 Nov 10:38:49 10:42:39 35° 69° (ENE) 10:46:30 145.980
AIST 2D 21 Nov 10:42:44 10:46:06 52° 260° (W) 10:49:31 435.315
PCSat 21 Nov 10:45:12 10:48:38 17° 255° (WSW) 10:52:04 145.827
EO-79 21 Nov 10:45:54 10:50:02 53° 72° (ENE) 10:54:11 145.935-145.965
NANOSAT C BR1 21 Nov 10:49:07 10:53:13 51° 72° (ENE) 10:57:20 145.865
ESTCUBE 1 21 Nov 10:50:58 10:54:47 26° 94° (E) 10:58:34 437.505/2401.250
BEESAT 2 21 Nov 10:58:14 11:01:41 26° 42° (NE) 11:05:04 435.950
LO-87 21 Nov 10:59:39 11:03:01 40° 98° (E) 11:06:21 145.935 - 145.965
POLYITAN 1 21 Nov 11:01:08 11:05:22 78° 75° (ENE) 11:09:37 437.675
DELFI C3 21 Nov 11:08:02 11:10:09 14° 298° (WNW) 11:12:14 145.870
FALCONSAT 3 21 Nov 11:10:15 11:12:31 16° 175° (S) 11:14:48 435.103
BEESAT 3 21 Nov 11:23:50 11:27:46 66° 238° (WSW) 11:31:38 437.485
QB50P2 21 Nov 11:24:36 11:28:45 53° 260° (W) 11:32:55 145.880/145.840
AO-7 21 Nov 11:29:52 11:32:07 11° 33° (NNE) 11:34:22 .
Oscar 19 21 Nov 11:30:18 11:34:18 24° 62° (ENE) 11:38:18 437.125/150
BUGSAT 1 21 Nov 11:31:01 11:34:46 33° 69° (ENE) 11:38:31 437.445
AO-85 21 Nov 11:55:43 12:00:04 41° 47° (NE) 12:04:44 145.980
Gurwin Techsat 1B 21 Nov 11:55:58 12:00:30 29° 64° (ENE) 12:05:02 435.225
SPROUT 21 Nov 12:07:11 12:11:11 39° 98° (E) 12:15:09 437.525
DUCHIFAT 1 21 Nov 12:15:01 12:18:23 23° 266° (W) 12:21:45 145.980
EO-79 21 Nov 12:23:34 12:26:06 15° 269° (W) 12:28:40 145.935-145.965
NANOSAT C BR1 21 Nov 12:26:36 12:29:13 16° 269° (W) 12:31:51 145.865
ESTCUBE 1 21 Nov 12:27:30 12:31:38 36° 292° (WNW) 12:35:46 437.505/2401.250
LO-87 21 Nov 12:33:59 12:36:06 15° 296° (WNW) 12:38:12 145.935 - 145.965
BEESAT 2 21 Nov 12:35:43 12:39:32 41° 241° (WSW) 12:43:17 435.950
POLYITAN 1 21 Nov 12:40:45 12:41:40 11° 272° (W) 12:42:36 437.675
O/OREOS (USA 219) 21 Nov 12:42:38 12:46:33 28° 104° (ESE) 12:50:29 437.305
M-CUBED/EXP-1 PRIME 21 Nov 12:43:20 12:46:20 24° 60° (ENE) 12:49:33 437.505
50 SAT 21 Nov 12:45:57 12:47:25 13° 92° (E) 12:48:53 437.505
VELOX 1 21 Nov 12:46:51 12:51:18 65° 102° (ESE) 12:55:43 145.980
FALCONSAT 3 21 Nov 12:48:51 12:50:51 14° 190° (S) 12:52:50 435.103
BUGSAT 1 21 Nov 13:06:44 13:10:10 24° 265° (W) 13:13:35 437.445
Oscar 19 21 Nov 13:08:18 13:13:17 52° 260° (W) 13:18:17 437.125/150
AO-7 21 Nov 13:15:07 13:22:34 40° 57° (ENE) 13:30:04 .
ITAMSAT 1 21 Nov 13:23:48 13:27:16 18° 58° (ENE) 13:30:44 435.822/435.867
DX 1 21 Nov 13:31:49 13:36:02 44° 99° (E) 13:40:13 434.975-435.025
Gurwin Techsat 1B 21 Nov 13:35:13 13:40:15 43° 262° (W) 13:45:20 435.225
AO-85 21 Nov 13:36:14 13:40:26 32° 243° (WSW) 13:44:53 145.980
SPROUT 21 Nov 13:43:34 13:46:51 22° 295° (WNW) 13:50:06 437.525
MOZHAYETS 4 21 Nov 13:59:06 14:00:35 11° 88° (E) 14:02:04
UKube-1 21 Nov 14:13:20 14:17:41 77° 103° (ESE) 14:22:00 .
50 SAT 21 Nov 14:16:40 14:19:42 36° 289° (WNW) 14:22:41 437.505
M-CUBED/EXP-1 PRIME 21 Nov 14:17:30 14:20:38 28° 260° (W) 14:24:00 437.505
O/OREOS (USA 219) 21 Nov 14:21:36 14:25:50 35° 302° (WNW) 14:30:06 437.305
VELOX 1 21 Nov 14:24:33 14:27:15 16° 300° (WNW) 14:29:54 145.980
YUBILEINY 21 Nov 14:34:32 14:40:30 19° 56° (NE) 14:46:25 435.215
ITAMSAT 1 21 Nov 15:00:55 15:06:09 74° 257° (WSW) 15:11:25 435.822/435.867
AO-7 21 Nov 15:07:00 15:15:04 56° 257° (WSW) 15:23:15 .
DX 1 21 Nov 15:08:38 15:11:55 21° 297° (WNW) 15:15:11 434.975-435.025
NO-84 21 Nov 15:14:04 15:17:42 57° 138° (SE) 15:21:39 435.350 FM
BEESAT 21 Nov 15:14:09 15:18:46 47° 100° (E) 15:23:20 436.000
ITUPSAT 1 21 Nov 15:23:59 15:28:42 58° 101° (E) 15:33:22 437.325
DOVE 4 21 Nov 15:31:53 15:36:36 40° 68° (ENE) 15:41:31 437.250
MOZHAYETS 4 21 Nov 15:33:45 15:38:20 82° 285° (WNW) 15:42:54
CUBESAT XI-V 21 Nov 15:46:11 15:50:27 34° 96° (E) 15:54:43 437.345
UKube-1 21 Nov 15:51:05 15:53:06 13° 301° (WNW) 15:55:07 .
XW-2C 21 Nov 15:58:46 16:00:18 12° 62° (ENE) 16:01:50 145.795 - 145.815
LilacSat-2 21 Nov 16:00:41 16:02:39 14° 63° (ENE) 16:04:37 437.200
XW-2F 21 Nov 16:08:33 16:10:37 14° 63° (ENE) 16:12:41 145.980 - 146.000
YUBILEINY 21 Nov 16:30:03 16:38:58 78° 79° (E) 16:47:49 435.215
KAITUO 1B 21 Nov 16:34:54 16:37:44 21° 67° (ENE) 16:40:36 145.475/437.950
CUTE-I 21 Nov 16:35:47 16:40:36 35° 65° (ENE) 16:45:27 437.470
HO-68 21 Nov 16:44:26 16:50:22 29° 57° (ENE) 16:56:18 435.675
XW-2D 21 Nov 16:49:57 16:53:31 44° 72° (ENE) 16:57:06 145.860 - 145.880
NO-84 21 Nov 16:51:40 16:55:16 35° 339° (NNW) 16:59:04 435.350 FM
BEESAT 21 Nov 16:52:33 16:56:14 23° 297° (WNW) 16:59:53 436.000
ITUPSAT 1 21 Nov 17:02:46 17:06:06 19° 299° (WNW) 17:09:26 437.325
XW-2B 21 Nov 17:04:39 17:08:20 64° 75° (ENE) 17:12:04 145.730 - 145.750
CUBEBUG 2 21 Nov 17:09:20 17:11:40 14° 61° (ENE) 17:13:59 437.445
DOVE 4 21 Nov 17:09:58 17:14:22 29° 267° (W) 17:18:55 437.250
MOZHAYETS 4 21 Nov 17:13:27 17:14:43 11° 303° (WNW) 17:15:58
NUDT-PHONESAT 21 Nov 17:17:58 17:21:34 64° 74° (ENE) 17:25:11 437.300
KKS-1 21 Nov 17:22:59 17:27:29 74° 104° (ESE) 17:31:54 437.445
CUBESAT XI-V 21 Nov 17:23:41 17:27:43 29° 294° (WNW) 17:31:46 437.345
XW-2C 21 Nov 17:30:18 17:33:59 60° 260° (W) 17:37:42 145.795 - 145.815
LilacSat-2 21 Nov 17:32:50 17:36:31 52° 261° (W) 17:40:12 437.200
